Tracking 18980 objects as of 19-Feb-2018
HD Live streaming from Space Station
objects crossing your sky now

FENGYUN 1C DEB

Track FENGYUN 1C DEB now!
10-day predictions


NORAD ID: 37046
Int'l Code: 1999-025EEE
Perigee: 801.8 km
Apogee: 880.3 km
Inclination: 98.8 °
Period: 101.6 minutes
Semi major axis: 7212 km
RCS: 0.0074 m2 (small)
Launch date: May 10, 1999
Source: People's Republic of China (PRC)
Launch site: Taiyaun Space Center, China (TSC)

Note: This is SATELLITE DEBRIS
aabbcc
Your satellite tracking list
Your tracking list is empty




NASA's NSSDC Master Catalog

Two Line Element Set (TLE):
1 37046U 99025EEE 18049.87780241 +.00000235 +00000-0 +13617-3 0  9995
2 37046 098.8141 087.2602 0054443 251.5225 108.0028 14.17477425487123
Source of the keplerian elements: AFSPC